Inquirer Daily News

Weather

Get conditions and forecasts for any City, State, ZIP code or Country:  
Trenton, NJ
on Wednesday, November 21, 2012

Wednesday
Previous Day Next Day
Daily Summary
 ActualAverageRecord
Temperature
Mean Temperature °F 44°F  
Max Temperature 54°F 52°F 75°F (1931)
Min Temperature 32°F 36°F 14°F (1987)
Degree Days
Heating Degree Days 22 21  
Month to date heating degree days 457 375  
Since 1 July heating degree days 764 772  
Cooling Degree Days 0 0  
Month to date cooling degree days 0 0  
Year to date cooling degree days 1234 965  
Moisture
Dew Point 28°F   
Average Humidity 59    
Maximum Humidity 82    
Minimum Humidity 35    
Precipitation
Precipitation 0.00 in 0.10 in 1.51 in (1954)
Month to date precipitation 0.58 2.20  
Year to date precipitation 32.63 41.63  
Wind
Wind Speed 6 mph   
Max Wind Speed 14 mph   
Max Gust Speed 18 mph   
Visibility 10 miles   
Events     

Key: T is trace of precipitation, MM is missing value
Source: NWS Daily Summary
Time(EST)TemperatureDew PointHumidity Pressure Visibility Wind DirectionWind SpeedGust SpeedPrecipitationEvents Conditions
12:53 AM 39.9°F 30.0°F 68% 30.12 in 10.0 miles NNE 4.6 mph - N/A   Clear
1:53 AM 37.9°F 30.9°F 76% 30.13 in 10.0 miles NNW 6.9 mph - N/A   Clear
2:53 AM 37.9°F 30.0°F 73% 30.13 in 10.0 miles North 5.8 mph - N/A   Clear
3:53 AM 37.0°F 28.9°F 73% 30.13 in 10.0 miles North 4.6 mph - N/A   Clear
4:53 AM 35.1°F 28.9°F 78% 30.14 in 10.0 miles North 4.6 mph - N/A   Clear
5:53 AM 36.0°F 30.0°F 79% 30.16 in 10.0 miles North 6.9 mph - N/A   Clear
6:53 AM 33.1°F 28.0°F 82% 30.17 in 10.0 miles North 4.6 mph - N/A   Clear
7:53 AM 37.0°F 28.9°F 73% 30.18 in 10.0 miles North 6.9 mph - N/A   Clear
8:53 AM 43.0°F 30.9°F 62% 30.19 in 10.0 miles NNE 6.9 mph - N/A   Clear
9:53 AM 46.9°F 30.9°F 54% 30.20 in 10.0 miles ENE 6.9 mph - N/A   Clear
10:53 AM 50.0°F 27.0°F 41% 30.19 in 10.0 miles NE 12.7 mph - N/A   Clear
11:53 AM 52.0°F 28.9°F 41% 30.18 in 10.0 miles ENE 9.2 mph - N/A   Clear
12:53 PM 53.1°F 28.0°F 38% 30.16 in 10.0 miles ENE 8.1 mph - N/A   Clear
1:53 PM 54.0°F 28.9°F 38% 30.14 in 10.0 miles Calm Calm - N/A   Clear
2:53 PM 54.0°F 28.9°F 38% 30.15 in 10.0 miles ENE 8.1 mph - N/A   Clear
3:53 PM 53.1°F 26.1°F 35% 30.16 in 10.0 miles ENE 5.8 mph - N/A   Clear
5:53 PM 45.0°F 26.1°F 48% 30.18 in 10.0 miles Calm Calm - N/A   Clear
6:53 PM 42.1°F 26.1°F 53% 30.20 in 10.0 miles North 3.5 mph - N/A   Clear
7:53 PM 37.0°F 27.0°F 67% 30.21 in 10.0 miles North 3.5 mph - N/A   Clear
8:53 PM 36.0°F 27.0°F 70% 30.21 in 10.0 miles North 3.5 mph - N/A   Clear
9:53 PM 37.0°F 27.0°F 67% 30.21 in 10.0 miles North 4.6 mph - N/A   Clear
10:53 PM 34.0°F 26.1°F 73% 30.21 in 10.0 miles North 5.8 mph - N/A   Clear
11:53 PM 36.0°F 24.1°F 62% 30.21 in 10.0 miles NNE 5.8 mph - N/A   Clear
Astronomy
Sunrise:06:52 AM (EST) Moon Rise:12:53 PM (EST)11/21
Sunset:04:37 PM (EST) Moon Set:12:08 AM (EST)11/21
Moon Phase
Nov. 21 Nov. 28 Dec. 06 Dec. 13 Dec. 20

Copyright © 2014 The Weather Underground, Inc.